AZERSPACE 2 (IS-38)

Last updated on Thu Mar 05 2026 00:02:59 GMT+0000 (Coordinated Universal Time)

1 43632U 18074A 26063.29905912 .00000000 00000+0 00000+0 0 9990 2 43632 0.0251 147.3552 0001455 209.1926 318.2837 1.00270465 27397
UTC large
Height (km)
Speed (km/s)
/
Latitude / Longitude
Inclination (degrees)
Orbital Period (minutes)
Azimuth
Elevation
Range (km)
Doppler Factor

Next 0 passes for location: London (51.5072 / 0.1276)

Sorry there are no passes over London.